Location: Orange Harbor Mobile Home Park
(26.6923°N, 81.7937°W)
Time: 08:40:38
(UTC+00:00)

Cosmos 2298 Rocket - Pass Details

Date: 19 September 2020
Orbit: 777 x 783 km, 74.0° (Epoch: 30 October)

Event Time Altitude Azimuth Distance (km) Brightness Sun altitude
Rises 00:52:18 0° 197° (SSW) 3,253 7.3 -19.6°
Reaches altitude 10° 00:54:40 10° 198° (SSW) 2,328 6.6 -20.1°
Maximum altitude 00:59:58 79° 285° (WNW) 798 4.1 -21.3°
Drops below altitude 10° 01:05:17 10° 12° (NNE) 2,338 6.5 -22.5°
Sets 01:07:41 0° 14° (NNE) 3,269 7.3 -23.0°
